| time (UTC) | temp F | wind direction | speed MPH | gust MPH | rain 1hr in | rain 24hr in | rain mn in | humidity % | barometer mb |
| 20260906203104 | 71 | 207 | 1.0 | 3.0 | 0.00 | 0.38 | 0.16 | 74 | 1015.4 |
| 20260906202604 | 70 | 240 | 1.0 | 2.0 | 0.00 | 0.38 | 0.16 | 76 | 1015.3 |
| 20260906202104 | 70 | 240 | 1.0 | 2.0 | 0.00 | 0.38 | 0.16 | 75 | 1015.4 |
| 20260906201604 | 70 | 240 | 0.0 | 3.0 | 0.00 | 0.38 | 0.16 | 75 | 1015.4 |
| 20260906201104 | 70 | 243 | 1.0 | 3.0 | 0.00 | 0.38 | 0.16 | 77 | 1015.4 |
| 20260906200105 | 70 | 253 | 1.0 | 3.0 | 0.00 | 0.38 | 0.16 | 78 | 1015.4 |
| 20260906195104 | 70 | 244 | 0.0 | 2.0 | 0.00 | 0.38 | 0.16 | 79 | 1015.3 |
| 20260906194604 | 70 | 244 | 0.0 | 1.0 | 0.00 | 0.38 | 0.16 | 80 | 1015.3 |
| 20260906194104 | 70 | 244 | 0.0 | 2.0 | 0.00 | 0.38 | 0.16 | 78 | 1015.3 |
| 20260906193604 | 70 | 244 | 0.0 | 2.0 | 0.00 | 0.38 | 0.16 | 77 | 1015.3 |
| 20260906193104 | 70 | 244 | 1.0 | 2.0 | 0.00 | 0.38 | 0.16 | 76 | 1015.3 |
| 20260906192604 | 70 | 244 | 0.0 | 2.0 | 0.00 | 0.38 | 0.16 | 77 | 1015.2 |
| 20260906192104 | 70 | 244 | 0.0 | 3.0 | 0.00 | 0.38 | 0.16 | 76 | 1015.2 |
| 20260906191604 | 70 | 242 | 1.0 | 2.0 | 0.00 | 0.38 | 0.16 | 76 | 1015.2 |
| 20260906191104 | 70 | 175 | 0.0 | 1.0 | 0.00 | 0.38 | 0.16 | 75 | 1015.2 |
| 20260906190604 | 70 | 175 | 0.0 | 1.0 | 0.00 | 0.38 | 0.16 | 76 | 1015.2 |
| 20260906190104 | 70 | 175 | 1.0 | 3.0 | 0.00 | 0.38 | 0.16 | 74 | 1015.2 |
| 20260906185604 | 71 | 143 | 1.0 | 2.0 | 0.00 | 0.38 | 0.16 | 74 | 1015.2 |
| 20260906184604 | 71 | 0 | 1.0 | 3.0 | 0.00 | 0.38 | 0.16 | 75 | 1015.4 |
| 20260906184103 | 71 | 191 | 0.0 | 7.0 | 0.00 | 0.38 | 0.16 | 74 | 1015.5 |
| 20260906183604 | 72 | 172 | 4.0 | 7.0 | 0.00 | 0.38 | 0.16 | 75 | 1015.5 |
| 20260906183104 | 72 | 199 | 2.0 | 5.0 | 0.00 | 0.38 | 0.16 | 73 | 1015.4 |
| 20260906182604 | 71 | 150 | 2.0 | 6.0 | 0.00 | 0.38 | 0.16 | 75 | 1015.5 |
| 20260906182104 | 71 | 175 | 4.0 | 7.0 | 0.00 | 0.38 | 0.16 | 75 | 1015.5 |
| 20260906181603 | 71 | 174 | 1.0 | 8.0 | 0.00 | 0.38 | 0.16 | 78 | 1015.6 |
| 20260906181103 | 71 | 172 | 2.0 | 8.0 | 0.00 | 0.38 | 0.16 | 74 | 1015.6 |
| 20260906180604 | 71 | 218 | 3.0 | 6.0 | 0.00 | 0.38 | 0.16 | 76 | 1015.6 |
| 20260906180104 | 71 | 169 | 1.0 | 3.0 | 0.00 | 0.38 | 0.16 | 78 | 1015.6 |
| 20260906175604 | 70 | 223 | 3.0 | 5.0 | 0.00 | 0.38 | 0.16 | 78 | 1015.7 |
| 20260906175104 | 71 | 243 | 2.0 | 5.0 | 0.00 | 0.38 | 0.16 | 75 | 1015.7 |
| 20260906174109 | 70 | 172 | 2.0 | 6.0 | 0.00 | 0.38 | 0.16 | 80 | 1015.6 |
| 20260906173604 | 70 | 215 | 3.0 | 9.0 | 0.00 | 0.38 | 0.16 | 79 | 1015.6 |
| 20260906173104 | 70 | 146 | 3.0 | 7.0 | 0.00 | 0.38 | 0.16 | 80 | 1015.8 |
| 20260906172604 | 69 | 207 | 2.0 | 5.0 | 0.00 | 0.38 | 0.16 | 81 | 1015.8 |
| 20260906172104 | 69 | 138 | 3.0 | 8.0 | 0.00 | 0.38 | 0.16 | 80 | 1015.9 |
| 20260906171604 | 69 | 169 | 5.0 | 10.0 | 0.00 | 0.38 | 0.16 | 80 | 1015.9 |
| 20260906171104 | 69 | 168 | 2.0 | 7.0 | 0.00 | 0.38 | 0.16 | 81 | 1015.9 |
| 20260906170604 | 69 | 148 | 3.0 | 8.0 | 0.00 | 0.38 | 0.16 | 81 | 1015.9 |
| 20260906170106 | 69 | 166 | 1.0 | 7.0 | 0.00 | 0.38 | 0.16 | 81 | 1016.0 |
| 20260906165604 | 69 | 142 | 2.0 | 7.0 | 0.00 | 0.38 | 0.16 | 78 | 1015.9 |
| 20260906165104 | 70 | 194 | 2.0 | 9.0 | 0.00 | 0.38 | 0.16 | 78 | 1015.9 |
| 20260906164604 | 70 | 193 | 3.0 | 12.0 | 0.00 | 0.38 | 0.16 | 78 | 1015.8 |
| 20260906164103 | 70 | 157 | 2.0 | 5.0 | 0.00 | 0.38 | 0.16 | 78 | 1015.6 |
| 20260906163604 | 70 | 240 | 1.0 | 3.0 | 0.00 | 0.38 | 0.16 | 76 | 1015.7 |
| 20260906163104 | 70 | 163 | 3.0 | 9.0 | 0.00 | 0.38 | 0.16 | 76 | 1015.8 |
| 20260906162604 | 70 | 207 | 2.0 | 3.0 | 0.00 | 0.38 | 0.16 | 81 | 1015.7 |
| 20260906161604 | 69 | 236 | 1.0 | 3.0 | 0.00 | 0.38 | 0.16 | 81 | 1015.7 |
| 20260906161103 | 68 | 228 | 0.0 | 2.0 | 0.00 | 0.38 | 0.16 | 82 | 1015.8 |
| 20260906160104 | 68 | 167 | 2.0 | 8.0 | 0.00 | 0.38 | 0.16 | 81 | 1015.9 |
| 20260906155604 | 68 | 155 | 2.0 | 8.0 | 0.00 | 0.38 | 0.16 | 86 | 1015.9 |
| 20260906155103 | 67 | 162 | 2.0 | 3.0 | 0.00 | 0.38 | 0.16 | 84 | 1015.9 |
| 20260906154604 | 67 | 241 | 3.0 | 6.0 | 0.00 | 0.38 | 0.16 | 86 | 1016.1 |
| 20260906154104 | 67 | 168 | 2.0 | 8.0 | 0.00 | 0.38 | 0.16 | 87 | 1016.1 |
| 20260906152604 | 66 | 138 | 1.0 | 3.0 | 0.00 | 0.38 | 0.16 | 87 | 1016.2 |
| 20260906151604 | 66 | 179 | 2.0 | 5.0 | 0.00 | 0.38 | 0.16 | 88 | 1016.1 |
| 20260906151104 | 66 | 231 | 2.0 | 5.0 | 0.00 | 0.38 | 0.16 | 89 | 1016.1 |
| 20260906150607 | 66 | 65 | 2.0 | 6.0 | 0.00 | 0.38 | 0.16 | 91 | 1016.1 |
| 20260906150106 | 66 | 199 | 1.0 | 6.0 | 0.00 | 0.38 | 0.16 | 92 | 1016.0 |
| 20260906145607 | 66 | 142 | 3.0 | 8.0 | 0.00 | 0.38 | 0.16 | 94 | 1016.0 |
| 20260906145106 | 65 | 240 | 2.0 | 3.0 | 0.00 | 0.38 | 0.16 | 94 | 1016.0 |
| 20260906144607 | 64 | 248 | 2.0 | 3.0 | 0.00 | 0.38 | 0.16 | 94 | 1016.1 |
| 20260906143607 | 64 | 252 | 1.0 | 3.0 | 0.00 | 0.38 | 0.16 | 95 | 1016.1 |
| 20260906143107 | 64 | 219 | 2.0 | 3.0 | 0.00 | 0.38 | 0.16 | 95 | 1016.1 |
| 20260906142606 | 64 | 174 | 2.0 | 5.0 | 0.00 | 0.38 | 0.16 | 96 | 1016.1 |
| 20260906142107 | 63 | 158 | 2.0 | 3.0 | 0.00 | 0.38 | 0.16 | 96 | 1016.1 |
| 20260906135607 | 63 | 248 | 2.0 | 8.0 | 0.00 | 0.38 | 0.16 | 97 | 1016.0 |
| 20260906135108 | 63 | 179 | 1.0 | 7.0 | 0.00 | 0.38 | 0.16 | 97 | 1015.9 |
| 20260906134608 | 63 | 224 | 2.0 | 3.0 | 0.00 | 0.38 | 0.16 | 97 | 1015.9 |
| 20260906134107 | 62 | 208 | 1.0 | 3.0 | 0.00 | 0.38 | 0.16 | 97 | 1015.7 |
| 20260906133606 | 62 | 172 | 2.0 | 3.0 | 0.00 | 0.38 | 0.16 | 97 | 1015.8 |
| 20260906133107 | 62 | 231 | 1.0 | 8.0 | 0.00 | 0.38 | 0.16 | 97 | 1015.9 |
| 20260906132607 | 62 | 157 | 1.0 | 5.0 | 0.00 | 0.38 | 0.16 | 97 | 1015.9 |
| 20260906132106 | 62 | 213 | 1.0 | 3.0 | 0.00 | 0.38 | 0.16 | 97 | 1015.9 |
| 20260906131607 | 62 | 244 | 2.0 | 3.0 | 0.00 | 0.38 | 0.16 | 97 | 1015.8 |
| 20260906131107 | 62 | 175 | 1.0 | 3.0 | 0.00 | 0.38 | 0.16 | 97 | 1015.8 |
| 20260906130107 | 62 | 157 | 1.0 | 3.0 | 0.00 | 0.38 | 0.16 | 97 | 1015.7 |
| 20260906125608 | 62 | 223 | 2.0 | 6.0 | 0.00 | 0.38 | 0.16 | 97 | 1015.7 |
| 20260906125107 | 62 | 232 | 2.0 | 3.0 | 0.00 | 0.38 | 0.16 | 97 | 1015.7 |
| 20260906124607 | 62 | 148 | 2.0 | 7.0 | 0.00 | 0.38 | 0.16 | 97 | 1015.7 |
| 20260906124107 | 62 | 140 | 1.0 | 2.0 | 0.00 | 0.38 | 0.16 | 97 | 1015.6 |
| 20260906123607 | 62 | 211 | 2.0 | 5.0 | 0.00 | 0.38 | 0.16 | 97 | 1015.5 |
| 20260906123106 | 62 | 149 | 2.0 | 5.0 | 0.00 | 0.38 | 0.16 | 97 | 1015.3 |
| 20260906122606 | 62 | 243 | 2.0 | 3.0 | 0.00 | 0.38 | 0.16 | 97 | 1015.3 |
| 20260906121607 | 61 | 141 | 1.0 | 5.0 | 0.00 | 0.38 | 0.16 | 97 | 1015.1 |
| 20260906121107 | 61 | 144 | 1.0 | 3.0 | 0.00 | 0.38 | 0.16 | 97 | 1015.1 |
| 20260906120108 | 61 | 246 | 2.0 | 3.0 | 0.00 | 0.38 | 0.16 | 97 | 1015.1 |
| 20260906115607 | 61 | 0 | 1.0 | 2.0 | 0.00 | 0.38 | 0.16 | 97 | 1015.1 |
| 20260906115107 | 61 | 336 | 2.0 | 3.0 | 0.00 | 0.38 | 0.16 | 97 | 1015.1 |
| 20260906114606 | 60 | 244 | 1.0 | 3.0 | 0.00 | 0.38 | 0.16 | 97 | 1015.0 |
| 20260906114107 | 60 | 245 | 1.0 | 2.0 | 0.00 | 0.38 | 0.16 | 97 | 1014.9 |
| 20260906113107 | 60 | 245 | 0.0 | 0.0 | 0.00 | 0.38 | 0.16 | 97 | 1014.7 |
| 20260906112107 | 59 | 245 | 0.0 | 1.0 | 0.00 | 0.38 | 0.16 | 97 | 1014.6 |
| 20260906111625 | 59 | 245 | 0.0 | 0.0 | 0.00 | 0.38 | 0.16 | 96 | 1014.6 |
| 20260906111107 | 59 | 245 | 0.0 | 1.0 | 0.00 | 0.38 | 0.16 | 96 | 1014.6 |
| 20260906110607 | 59 | 245 | 0.0 | 0.0 | 0.00 | 0.38 | 0.16 | 96 | 1014.5 |
| 20260906110107 | 59 | 245 | 0.0 | 0.0 | 0.00 | 0.38 | 0.16 | 96 | 1014.4 |
| 20260906105607 | 59 | 245 | 0.0 | 1.0 | 0.00 | 0.38 | 0.16 | 96 | 1014.3 |
| 20260906105107 | 59 | 245 | 1.0 | 2.0 | 0.00 | 0.38 | 0.16 | 96 | 1014.2 |
| 20260906104607 | 59 | 245 | 0.0 | 1.0 | 0.00 | 0.38 | 0.16 | 96 | 1014.2 |
| 20260906104107 | 59 | 245 | 0.0 | 1.0 | 0.00 | 0.38 | 0.16 | 96 | 1014.1 |
| 20260906103607 | 59 | 245 | 0.0 | 1.0 | 0.00 | 0.38 | 0.16 | 96 | 1013.9 |
| 20260906103106 | 59 | 245 | 0.0 | 1.0 | 0.00 | 0.38 | 0.16 | 96 | 1014.0 |
| 20260906102607 | 59 | 244 | 1.0 | 3.0 | 0.00 | 0.38 | 0.16 | 96 | 1014.0 |
| 20260906101107 | 59 | 246 | 1.0 | 2.0 | 0.00 | 0.38 | 0.16 | 96 | 1013.8 |
| 20260906100607 | 60 | 246 | 0.0 | 1.0 | 0.00 | 0.38 | 0.16 | 96 | 1013.7 |
| 20260906100107 | 60 | 246 | 0.0 | 2.0 | 0.00 | 0.38 | 0.16 | 96 | 1013.6 |
| 20260906095607 | 60 | 246 | 1.0 | 2.0 | 0.00 | 0.38 | 0.16 | 96 | 1013.6 |
| 20260906095107 | 60 | 246 | 0.0 | 1.0 | 0.00 | 0.38 | 0.16 | 96 | 1013.6 |
| 20260906094107 | 60 | 246 | 0.0 | 1.0 | 0.00 | 0.38 | 0.16 | 96 | 1013.5 |
| 20260906093607 | 60 | 246 | 0.0 | 2.0 | 0.00 | 0.38 | 0.16 | 96 | 1013.5 |
| 20260906093107 | 60 | 246 | 1.0 | 2.0 | 0.00 | 0.38 | 0.16 | 96 | 1013.5 |
| 20260906092606 | 60 | 246 | 0.0 | 1.0 | 0.00 | 0.38 | 0.16 | 96 | 1013.4 |
| 20260906092107 | 61 | 246 | 0.0 | 1.0 | 0.00 | 0.38 | 0.16 | 96 | 1013.3 |
| 20260906091607 | 61 | 246 | 1.0 | 2.0 | 0.00 | 0.38 | 0.16 | 96 | 1013.2 |
| 20260906091107 | 61 | 246 | 1.0 | 2.0 | 0.00 | 0.38 | 0.16 | 96 | 1013.3 |
| 20260906090607 | 61 | 141 | 0.0 | 1.0 | 0.00 | 0.38 | 0.16 | 96 | 1013.2 |
| 20260906090107 | 61 | 141 | 1.0 | 2.0 | 0.00 | 0.38 | 0.16 | 96 | 1013.2 |
| 20260906085607 | 61 | 141 | 1.0 | 2.0 | 0.00 | 0.38 | 0.16 | 96 | 1013.2 |
| 20260906085107 | 61 | 242 | 0.0 | 3.0 | 0.00 | 0.38 | 0.16 | 96 | 1013.2 |
| 20260906084607 | 61 | 242 | 2.0 | 3.0 | 0.00 | 0.38 | 0.16 | 96 | 1013.2 |
| 20260906084107 | 61 | 139 | 0.0 | 2.0 | 0.00 | 0.38 | 0.16 | 96 | 1013.3 |
| 20260906083107 | 62 | 350 | 2.0 | 6.0 | 0.00 | 0.38 | 0.16 | 96 | 1013.3 |
| 20260906082607 | 62 | 261 | 2.0 | 7.0 | 0.00 | 0.38 | 0.16 | 96 | 1013.3 |
| 20260906082107 | 62 | 143 | 1.0 | 3.0 | 0.00 | 0.38 | 0.16 | 96 | 1013.3 |
| 20260906081606 | 62 | 344 | 2.0 | 3.0 | 0.00 | 0.38 | 0.16 | 96 | 1013.2 |
| 20260906081106 | 62 | 240 | 0.0 | 2.0 | 0.00 | 0.38 | 0.16 | 96 | 1013.2 |
| 20260906080607 | 62 | 240 | 0.0 | 2.0 | 0.00 | 0.38 | 0.16 | 96 | 1013.1 |
| 20260906080107 | 62 | 240 | 1.0 | 3.0 | 0.00 | 0.38 | 0.16 | 96 | 1013.0 |
| 20260906075607 | 62 | 242 | 1.0 | 2.0 | 0.00 | 0.38 | 0.16 | 96 | 1013.0 |
| 20260906075106 | 62 | 242 | 1.0 | 2.0 | 0.00 | 0.38 | 0.16 | 96 | 1012.9 |
| 20260906074607 | 62 | 242 | 1.0 | 2.0 | 0.00 | 0.38 | 0.16 | 96 | 1012.9 |
| 20260906074107 | 62 | 242 | 1.0 | 2.0 | 0.00 | 0.38 | 0.16 | 96 | 1013.0 |
| 20260906073106 | 62 | 242 | 0.0 | 1.0 | 0.00 | 0.38 | 0.16 | 96 | 1013.1 |
| 20260906072607 | 62 | 242 | 0.0 | 1.0 | 0.01 | 0.38 | 0.16 | 96 | 1013.1 |
| 20260906072107 | 62 | 242 | 0.0 | 1.0 | 0.01 | 0.38 | 0.16 | 96 | 1013.1 |
| 20260906071106 | 62 | 243 | 1.0 | 2.0 | 0.03 | 0.38 | 0.16 | 96 | 1013.1 |
| 20260906070606 | 62 | 243 | 0.0 | 2.0 | 0.09 | 0.38 | 0.16 | 96 | 1013.0 |
| 20260906070107 | 61 | 243 | 0.0 | 0.0 | 0.09 | 0.38 | 0.16 | 96 | 1013.0 |
| 20260906065606 | 61 | 243 | 0.0 | 0.0 | 0.09 | 0.38 | 0.16 | 95 | 1013.0 |
| 20260906065106 | 61 | 243 | 0.0 | 0.0 | 0.10 | 0.38 | 0.16 | 95 | 1013.2 |
| 20260906064606 | 61 | 243 | 0.0 | 1.0 | 0.13 | 0.38 | 0.16 | 95 | 1013.2 |
| 20260906064107 | 61 | 243 | 0.0 | 1.0 | 0.16 | 0.38 | 0.16 | 95 | 1013.2 |
| 20260906063606 | 61 | 243 | 0.0 | 1.0 | 0.16 | 0.38 | 0.16 | 95 | 1013.2 |
| 20260906063107 | 61 | 243 | 0.0 | 1.0 | 0.16 | 0.38 | 0.16 | 95 | 1013.3 |
| 20260906062606 | 61 | 243 | 1.0 | 1.0 | 0.15 | 0.37 | 0.15 | 95 | 1013.4 |
| 20260906062107 | 61 | 243 | 1.0 | 2.0 | 0.15 | 0.37 | 0.15 | 95 | 1013.4 |
| 20260906061606 | 62 | 196 | 1.0 | 2.0 | 0.15 | 0.37 | 0.15 | 95 | 1013.4 |
| 20260906061107 | 62 | 196 | 1.0 | 2.0 | 0.13 | 0.35 | 0.13 | 95 | 1013.4 |
| 20260906060107 | 62 | 196 | 1.0 | 2.0 | 0.07 | 0.29 | 0.07 | 95 | 1013.3 |
| 20260906055106 | 62 | 196 | 1.0 | 2.0 | 0.06 | 0.28 | 0.06 | 94 | 1013.4 |
| 20260906053606 | 62 | 196 | 1.0 | 1.0 | 0.00 | 0.22 | 0.00 | 94 | 1013.3 |
| 20260906052606 | 62 | 196 | 0.0 | 2.0 | 0.00 | 0.22 | 0.00 | 94 | 1013.3 |
| 20260906052106 | 62 | 196 | 1.0 | 2.0 | 0.00 | 0.22 | 0.00 | 94 | 1013.3 |
| 20260906051107 | 62 | 196 | 1.0 | 2.0 | 0.00 | 0.22 | 0.00 | 93 | 1013.4 |
| 20260906050607 | 62 | 196 | 1.0 | 2.0 | 0.00 | 0.22 | 0.00 | 93 | 1013.5 |
| 20260906050106 | 62 | 196 | 1.0 | 3.0 | 0.00 | 0.22 | 0.00 | 93 | 1013.6 |
| 20260906045606 | 62 | 194 | 1.0 | 2.0 | 0.00 | 0.22 | 0.00 | 93 | 1013.6 |
| 20260906044606 | 63 | 245 | 1.0 | 3.0 | 0.00 | 0.22 | 0.00 | 93 | 1013.6 |
| 20260906044106 | 63 | 241 | 0.0 | 1.0 | 0.00 | 0.22 | 0.00 | 93 | 1013.6 |
| 20260906043106 | 63 | 243 | 1.0 | 3.0 | 0.00 | 0.22 | 0.00 | 93 | 1013.6 |
| 20260906042606 | 64 | 166 | 1.0 | 5.0 | 0.00 | 0.22 | 0.00 | 93 | 1013.5 |
| 20260906042106 | 64 | 171 | 3.0 | 9.0 | 0.00 | 0.22 | 0.00 | 93 | 1013.4 |
| 20260906041606 | 65 | 189 | 3.0 | 8.0 | 0.00 | 0.22 | 0.00 | 94 | 1013.4 |
| 20260906041106 | 65 | 162 | 3.0 | 7.0 | 0.00 | 0.22 | 0.00 | 94 | 1013.2 |
| 20260906040606 | 65 | 164 | 4.0 | 6.0 | 0.00 | 0.22 | 0.00 | 94 | 1013.1 |
| 20260906040106 | 65 | 160 | 2.0 | 7.0 | 0.00 | 0.22 | 0.00 | 94 | 1013.1 |
| 20260906035606 | 65 | 204 | 1.0 | 3.0 | 0.00 | 0.22 | 0.22 | 94 | 1013.0 |
| 20260906034606 | 65 | 147 | 0.0 | 1.0 | 0.00 | 0.22 | 0.22 | 93 | 1012.9 |
| 20260906033606 | 65 | 147 | 0.0 | 0.0 | 0.00 | 0.22 | 0.22 | 93 | 1012.9 |
| 20260906033106 | 65 | 147 | 0.0 | 0.0 | 0.00 | 0.22 | 0.22 | 92 | 1012.8 |
| 20260906032606 | 65 | 147 | 0.0 | 1.0 | 0.00 | 0.22 | 0.22 | 93 | 1012.8 |
| 20260906032106 | 65 | 147 | 0.0 | 1.0 | 0.00 | 0.22 | 0.22 | 93 | 1012.8 |
| 20260906031106 | 66 | 147 | 0.0 | 0.0 | 0.01 | 0.22 | 0.22 | 93 | 1012.6 |
| 20260906030606 | 66 | 147 | 0.0 | 1.0 | 0.02 | 0.22 | 0.22 | 93 | 1012.6 |
| 20260906030107 | 66 | 147 | 0.0 | 0.0 | 0.05 | 0.22 | 0.22 | 93 | 1012.7 |
| 20260906025606 | 66 | 147 | 0.0 | 0.0 | 0.07 | 0.22 | 0.22 | 92 | 1012.8 |
| 20260906025106 | 66 | 147 | 0.0 | 0.0 | 0.08 | 0.22 | 0.22 | 92 | 1012.8 |
| 20260906024107 | 66 | 147 | 0.0 | 0.0 | 0.18 | 0.22 | 0.22 | 92 | 1012.6 |
| 20260906023606 | 66 | 147 | 0.0 | 0.0 | 0.21 | 0.22 | 0.22 | 92 | 1012.6 |
| 20260906022606 | 67 | 147 | 0.0 | 1.0 | 0.22 | 0.22 | 0.22 | 92 | 1012.8 |
| 20260906022107 | 67 | 147 | 0.0 | 1.0 | 0.22 | 0.22 | 0.22 | 92 | 1012.8 |
| 20260906021607 | 67 | 147 | 0.0 | 1.0 | 0.22 | 0.22 | 0.22 | 92 | 1012.8 |
| 20260906021106 | 67 | 147 | 1.0 | 2.0 | 0.21 | 0.21 | 0.21 | 92 | 1012.8 |
| 20260906020606 | 67 | 147 | 0.0 | 2.0 | 0.20 | 0.20 | 0.20 | 92 | 1012.8 |
| 20260906020106 | 67 | 147 | 1.0 | 2.0 | 0.17 | 0.17 | 0.17 | 91 | 1012.7 |
| 20260906015606 | 67 | 152 | 1.0 | 3.0 | 0.15 | 0.15 | 0.15 | 91 | 1012.7 |
| 20260906015106 | 67 | 180 | 0.0 | 1.0 | 0.14 | 0.14 | 0.14 | 91 | 1012.7 |
| 20260906014606 | 67 | 180 | 1.0 | 3.0 | 0.11 | 0.11 | 0.11 | 91 | 1012.7 |
| 20260906014106 | 67 | 166 | 2.0 | 5.0 | 0.04 | 0.04 | 0.04 | 90 | 1012.6 |
| 20260906013606 | 68 | 170 | 2.0 | 3.0 | 0.01 | 0.01 | 0.01 | 90 | 1012.5 |
| 20260906013106 | 68 | 152 | 1.0 | 2.0 | 0.00 | 0.00 | 0.00 | 89 | 1012.5 |
| 20260906012106 | 68 | 152 | 0.0 | 0.0 | 0.00 | 0.00 | 0.00 | 89 | 1012.5 |
| 20260906011607 | 68 | 152 | 0.0 | 0.0 | 0.00 | 0.00 | 0.00 | 88 | 1012.4 |
| 20260906011106 | 68 | 152 | 0.0 | 1.0 | 0.00 | 0.00 | 0.00 | 88 | 1012.3 |
| 20260906010606 | 68 | 142 | 0.0 | 0.0 | 0.00 | 0.00 | 0.00 | 88 | 1012.2 |
| 20260906010106 | 68 | 142 | 0.0 | 1.0 | 0.00 | 0.00 | 0.00 | 87 | 1012.2 |
| 20260906005606 | 68 | 142 | 0.0 | 0.0 | 0.00 | 0.00 | 0.00 | 87 | 1012.1 |
| 20260906005106 | 69 | 142 | 0.0 | 0.0 | 0.00 | 0.00 | 0.00 | 87 | 1012.1 |
| 20260906004606 | 69 | 142 | 0.0 | 1.0 | 0.00 | 0.00 | 0.00 | 87 | 1012.1 |
| 20260906004106 | 69 | 142 | 1.0 | 2.0 | 0.00 | 0.00 | 0.00 | 87 | 1012.0 |
| 20260906003607 | 69 | 142 | 0.0 | 2.0 | 0.00 | 0.00 | 0.00 | 87 | 1012.0 |
| 20260906002106 | 69 | 173 | 2.0 | 3.0 | 0.00 | 0.00 | 0.00 | 86 | 1011.8 |
| 20260906001606 | 69 | 169 | 2.0 | 3.0 | 0.00 | 0.00 | 0.00 | 85 | 1011.7 |
| 20260906001106 | 69 | 173 | 2.0 | 3.0 | 0.00 | 0.00 | 0.00 | 85 | 1011.6 |
| 20260906000606 | 69 | 178 | 2.0 | 5.0 | 0.00 | 0.00 | 0.00 | 84 | 1011.5 |
| 20260906000106 | 70 | 202 | 1.0 | 2.0 | 0.00 | 0.00 | 0.00 | 84 | 1011.6 |
| 20260905235606 | 70 | 142 | 0.0 | 1.0 | 0.00 | 0.00 | 0.00 | 83 | 1011.5 |
| 20260905235105 | 70 | 142 | 0.0 | 0.0 | 0.00 | 0.00 | 0.00 | 83 | 1011.4 |
| 20260905234605 | 70 | 142 | 0.0 | 0.0 | 0.00 | 0.00 | 0.00 | 83 | 1011.3 |
| 20260905234106 | 70 | 142 | 0.0 | 0.0 | 0.00 | 0.00 | 0.00 | 82 | 1011.2 |
| 20260905233106 | 71 | 142 | 0.0 | 1.0 | 0.00 | 0.00 | 0.00 | 82 | 1011.1 |
| 20260905232106 | 71 | 142 | 0.0 | 1.0 | 0.00 | 0.00 | 0.00 | 82 | 1011.0 |
| 20260905231606 | 71 | 142 | 0.0 | 1.0 | 0.00 | 0.00 | 0.00 | 82 | 1011.0 |
| 20260905231106 | 71 | 142 | 0.0 | 1.0 | 0.00 | 0.00 | 0.00 | 81 | 1010.9 |
| 20260905230606 | 71 | 142 | 0.0 | 0.0 | 0.00 | 0.00 | 0.00 | 81 | 1010.9 |
| 20260905230106 | 72 | 142 | 1.0 | 2.0 | 0.00 | 0.00 | 0.00 | 81 | 1010.9 |
| 20260905225606 | 72 | 142 | 1.0 | 1.0 | 0.00 | 0.00 | 0.00 | 81 | 1010.8 |
| 20260905225106 | 72 | 142 | 1.0 | 2.0 | 0.00 | 0.00 | 0.00 | 81 | 1010.7 |
| 20260905224606 | 72 | 142 | 1.0 | 2.0 | 0.00 | 0.00 | 0.00 | 80 | 1010.7 |
| 20260905224105 | 73 | 142 | 0.0 | 1.0 | 0.00 | 0.00 | 0.00 | 79 | 1010.7 |
| 20260905223106 | 74 | 142 | 1.0 | 2.0 | 0.00 | 0.00 | 0.00 | 78 | 1010.9 |
| 20260905222606 | 74 | 142 | 1.0 | 2.0 | 0.00 | 0.00 | 0.00 | 77 | 1010.8 |
| 20260905222106 | 74 | 142 | 1.0 | 1.0 | 0.00 | 0.00 | 0.00 | 77 | 1010.6 |
| 20260905221606 | 75 | 142 | 0.0 | 1.0 | 0.00 | 0.00 | 0.00 | 76 | 1010.6 |
| 20260905221106 | 75 | 142 | 0.0 | 2.0 | 0.00 | 0.00 | 0.00 | 74 | 1010.6 |
| 20260905220606 | 75 | 142 | 0.0 | 0.0 | 0.00 | 0.00 | 0.00 | 74 | 1010.5 |
| 20260905220106 | 76 | 142 | 0.0 | 2.0 | 0.00 | 0.00 | 0.00 | 73 | 1010.5 |
| 20260905215605 | 76 | 142 | 1.0 | 2.0 | 0.00 | 0.00 | 0.00 | 73 | 1010.6 |
| 20260905215106 | 76 | 142 | 0.0 | 1.0 | 0.00 | 0.00 | 0.00 | 71 | 1010.5 |
| 20260905214605 | 77 | 142 | 0.0 | 3.0 | 0.00 | 0.00 | 0.00 | 71 | 1010.4 |
| 20260905214106 | 77 | 141 | 1.0 | 2.0 | 0.00 | 0.00 | 0.00 | 70 | 1010.3 |
| 20260905213606 | 77 | 141 | 0.0 | 2.0 | 0.00 | 0.00 | 0.00 | 68 | 1010.2 |
| 20260905213106 | 78 | 141 | 1.0 | 3.0 | 0.00 | 0.00 | 0.00 | 66 | 1010.2 |
| 20260905212605 | 78 | 240 | 1.0 | 2.0 | 0.00 | 0.00 | 0.00 | 66 | 1010.2 |
| 20260905212108 | 78 | 240 | 0.0 | 5.0 | 0.00 | 0.00 | 0.00 | 64 | 1010.1 |
| 20260905211606 | 79 | 250 | 2.0 | 3.0 | 0.00 | 0.00 | 0.00 | 65 | 1010.1 |
| 20260905211105 | 79 | 232 | 0.0 | 1.0 | 0.00 | 0.00 | 0.00 | 68 | 1010.0 |
| 20260905210606 | 79 | 240 | 1.0 | 2.0 | 0.00 | 0.00 | 0.00 | 64 | 1009.8 |
| 20260905205605 | 79 | 161 | 1.0 | 3.0 | 0.00 | 0.00 | 0.00 | 63 | 1009.9 |
| 20260905205106 | 79 | 241 | 1.0 | 3.0 | 0.00 | 0.00 | 0.00 | 61 | 1009.9 |
| 20260905204606 | 79 | 240 | 1.0 | 3.0 | 0.00 | 0.00 | 0.00 | 64 | 1009.8 |
| 20260905203606 | 78 | 240 | 1.0 | 3.0 | 0.00 | 0.00 | 0.00 | 61 | 1009.7 |